Tracking 29067 objects as of 20-Jul-2024
HD Live streaming from Space Station
objects crossing your sky now

FLOCK 4Y 9

Track FLOCK 4Y 9 now!
10-day predictions
FLOCK 4Y 9 is classified as:


NORAD ID: 55069
Int'l Code: 2023-001BN
Perigee: 475.5 km
Apogee: 492.3 km
Inclination: 97.4 °
Period: 94.1 minutes
Semi major axis: 6854 km
RCS: Unknown
Launch date: January 3, 2023
Source: United States (US)
Launch site: AIR FORCE EASTERN TEST RANGE (AFETR)
Your satellite tracking list
Your tracking list is empty




NASA's NSSDC Master Catalog

Two Line Element Set (TLE):
1 55069U 23001BN  24201.72337695  .00018513  00000-0  64410-3 0  9998
2 55069  97.4264 263.7558 0012293  65.0999 295.1518 15.29682348 85754
Source of the keplerian elements: AFSPC